Flag for Brazil Weather past 2 weeks in Fernando de Noronha, Pernambuco, Brazil

Now
75 °F

Passing clouds.


Feels Like: 74 °F
Forecast: 79 / 82 °F
Wind: 3 mph from Southwest

Location: Natal Aeroporto

Current Time: Mar 30, 2015 at 5:37:32 AM

Latest Report: Mar 30, 2015 at 5:00 AM


Visibility: N/A

Pressure: 29.89 "Hg

Humidity: 94%

Dew point: 73 °F

Location of Fernando de NoronhaLocation

Historic Weather in Fernando de Noronha — Graph

°F

Fernando de Noronha temperature yesterday

Maximum temperature yesterday: 86 °F (at 12:00 PM)
Minimum temperature yesterday: 77 °F (at 3:00 AM)
Average temperature yesterday: 80 °F

Past Weeks' High & Low Weather Summary

 TemperatureHumidityPressure
High90 °F (Mar 15, 1:00 PM)100% (Mar 21, 10:00 AM)30.04 "Hg (Mar 21, 10:00 AM)
Low37 °F (Mar 22, 5:00 PM)24% (Mar 24, 4:00 AM)29.77 "Hg (Mar 19, 5:00 PM)
Average80 °F76%29.90 "Hg
* Reported Mar 15 4:00 AM — Mar 30 4:00 AM, Fernando de Noronha, Weather by CustomWeather, © 2015

Note: Actual official high and low records may vary slightly from our data, if they occured in-between our weather recording intervals... More about our weather records

Advertising

Fernando de Noronha weather history for previous 24 hours

 ConditionsComfort  
Time TempWeatherWind HumidityBarometerVisibility
4:00 AM
Mon, Mar 30
77 °FPassing clouds.3 mph89%29.89 "HgN/A
3:00 AM77 °FPassing clouds.2 mph89%29.92 "HgN/A
2:00 AM77 °FPassing clouds.2 mph89%29.92 "HgN/A
1:00 AM77 °FPassing clouds.3 mph94%29.92 "HgN/A
12:00 AM77 °FPassing clouds.1 mph89%29.92 "HgN/A
11:00 PM
Sun, Mar 29
77 °FPassing clouds.5 mph94%29.95 "HgN/A
10:00 PM79 °FScattered showers. Passing clouds.8 mph84%N/AN/A
9:00 PM79 °FPassing clouds.6 mph89%29.95 "HgN/A
8:00 PM79 °FPassing clouds.6 mph89%29.92 "HgN/A
7:00 PM79 °FPartly cloudy.6 mph89%29.92 "HgN/A
6:00 PM79 °FBroken clouds.8 mph89%29.89 "HgN/A
5:00 PM81 °FBroken clouds.6 mph84%29.89 "HgN/A
4:00 PM81 °FPartly sunny.12 mph79%29.86 "HgN/A
3:00 PM86 °FBroken clouds.9 mph66%29.86 "HgN/A
2:00 PM82 °FScattered showers. Broken clouds.15 mph79%N/AN/A
1:00 PM86 °FBroken clouds.13 mph66%29.92 "HgN/A
12:00 PM86 °FBroken clouds.8 mph62%29.95 "HgN/A
11:00 AM84 °FBroken clouds.8 mph66%29.98 "HgN/A
10:00 AM84 °FPartly sunny.8 mph66%29.98 "HgN/A
9:00 AM82 °FBroken clouds.6 mph74%29.98 "HgN/A
8:00 AM79 °FPartly sunny.3 mph84%29.95 "HgN/A
7:00 AM77 °FPartly sunny.3 mph89%29.92 "HgN/A
6:00 AM77 °FPassing clouds.3 mph89%29.92 "HgN/A
5:00 AM77 °FPassing clouds.6 mph89%29.92 "HgN/A
Weather by CustomWeather, © 2015

See weather overviewHow to use our weather pages